Location: Eimen
(51.8766°N, 9.7806°E)
Time: 13:41:18
(UTC+00:00)

NOSS 3-4 (A) - Pass Details

Date: 23 May 2024
Orbit: 801 x 1410 km, 63.4° (Epoch: 04 June)

Event Time Altitude Azimuth Distance (km) Brightness Sun altitude
Rises 00:33:25 0° 312° (NW) 3,769 6.9 -15.6°
Reaches altitude 10° 00:36:04 10° 304° (NW) 2,901 6.2 -15.5°
Maximum altitude 00:42:19 37° 241° (WSW) 1,745 4.4 -15.2°
Enters shadow 00:47:12 19° 186° (S) 2,627 5.1 -14.9°
